Location: B�retswil
(47.3376°N, 8.8534°E)
Time: 21:06:26
(UTC+00:00)

Daily predictions for brighter satellites

Satellite Brightness Start Highest point End
(mag) Time Altitude Azimuth Time Altitude Azimuth Time Altitude Azimuth
Cosmos 1697 Rocket 4.5 17:33:04 10° WSW 17:38:06 32° NW 17:43:09 10° NNE
Meteor 1-25 Rocket 4.4 17:32:33 10° S 17:38:07 54° E 17:43:40 10° NNE
Meteor 1-27 Rocket 4.4 17:36:12 10° NNW 17:41:39 60° W 17:47:06 10° S
Cosmos 2074 Rocket 4.0 17:36:03 10° S 17:42:13 66° E 17:48:25 10° NNE
Cosmos 2154 Rocket 4.3 17:36:45 10° SSE 17:42:33 43° E 17:48:22 10° NNE
Abrixas rocket 1.4 17:40:46 10° WSW 17:43:16 87° SSE 17:45:46 10° ENE
YAOGAN 1 2.7 17:39:40 10° SSE 17:43:52 52° ENE 17:48:05 10° N
Helios 1A Rocket 3.7 17:40:33 10° SE 17:44:07 31° ENE 17:47:43 10° N
FALCON 9 DEB 4.4 17:42:12 10° WNW 17:45:04 30° N 17:47:56 10° ENE
APEX 3.0 17:43:31 10° NW 17:46:19 59° WSW 17:48:59 10° SSE
Cosmos 2219 Rocket 3.9 17:47:51 10° ESE 17:48:55 11° E 17:49:58 10° E
COSMO-SKYMED 1 2.7 17:45:27 10° NNE 17:49:49 80° WNW 17:54:09 10° SSW
GP-B 4.2 17:47:44 10° SE 17:51:18 24° ENE 17:54:53 10° NNE
Cosmos 1992 Rocket 4.3 17:49:49 10° S 17:54:46 44° ESE 17:59:44 10° NNE
Cosmos 2263 Rocket 3.2 17:49:33 10° NW 17:54:56 51° WSW 18:00:18 10° S
Cosmos 1437 4.3 17:52:21 10° NNW 17:55:02 36° W 17:57:43 10° SSW
SL-16 R/B 2.2 17:49:39 10° SSW 17:55:16 70° ESE 18:00:56 10° NNE
Meteor 1-18 Rocket 4.4 17:49:49 10° N 17:55:43 60° ENE 18:01:32 10° SSE
Cosmos 968 Rocket 3.5 17:50:36 10° NNW 17:55:54 87° ENE 18:01:11 10° SSE
ARGOS 3.3 17:51:42 10° SSE 17:56:59 57° ENE 18:02:18 10° N
FALCON 9 DEB 4.4 17:54:49 10° WNW 17:57:38 28° N 18:00:27 10° ENE
USA 234 4.1 17:53:52 10° ENE 17:59:28 29° SE 18:05:02 10° S
Cosmos 1486 Rocket 4.0 17:54:21 10° NNW 17:59:40 83° ENE 18:04:58 10° SSE
Cosmos 1515 3.6 17:56:13 10° N 18:00:03 64° E 18:03:50 10° SSE
Okean 1 3.3 17:56:07 10° N 18:00:08 63° E 18:04:08 10° SSE
SeaSat 1 3.0 17:58:06 10° NE 18:02:40 36° ESE 18:07:12 10° S
Cosmos 1633 Rocket 3.0 17:58:17 10° S 18:02:42 83° E 18:07:09 10° N
Cosmos 2184 Rocket 4.0 17:56:39 10° S 18:02:49 88° E 18:09:04 10° N
OBJECT-B 2.9 18:03:22 11° ENE 18:03:29 11° ENE 18:04:35 10° NE
Okean 1-7 4.0 17:59:49 10° NNE 18:03:33 27° ENE 18:07:14 10° SE
Cosmos 1707 Rocket 4.3 17:59:18 10° NNW 18:03:37 58° W 18:07:53 10° S
CZ-2C R/B 3.0 18:02:44 10° NNE 18:07:57 42° E 18:13:01 10° SSE
CZ-4 R/B 1.5 18:04:27 10° S 18:08:17 75° WSW 18:12:13 10° NNW
H-2A R/B 2.3 18:02:52 10° SSE 18:08:19 85° WSW 18:13:48 10° NNW
SAR-Lupe-4 3.7 18:07:03 10° NNE 18:10:34 51° E 18:14:04 10° S
USA 305 4.1 18:07:09 10° WNW 18:11:05 35° N 18:14:50 11° ENE
Gbstr 26 Del rocket 3.7 18:09:29 10° W 18:13:48 55° N 18:18:27 13° ENE
Cosmos 2237 4.3 18:09:04 10° S 18:14:36 54° ESE 18:20:11 10° NE
Meteor 1-20 Rocket 4.4 18:09:37 10° SSW 18:15:04 75° WNW 18:20:36 10° N
SL-4 R/B 2.3 18:13:01 10° WNW 18:16:27 43° N 18:18:38 19° ENE
USA 307 4.1 18:18:30 10° WNW 18:22:26 34° N 18:25:41 14° NE
ATLAS CENTAUR R/B 1.3 18:20:49 10° SSW 18:24:16 45° ESE 18:26:57 16° NE
USA 186 2.9 18:25:07 18° NE 18:25:07 18° NE 18:26:15 10° NNE
FALCON 9 DEB 3.1 18:20:52 10° WNW 18:24:18 73° NNE 18:26:13 24° ESE
USA 306 4.1 18:21:57 10° WNW 18:25:52 34° N 18:28:56 15° NE
Cosmos 1354 Rocket 3.9 18:21:07 10° NNW 18:26:23 72° ENE 18:31:35 10° SSE
Cosmos 44 Rocket 4.0 18:22:39 10° NW 18:27:49 59° WSW 18:32:54 10° SSE
ERS-2 2.1 18:24:11 10° NNE 18:27:52 90° WNW 18:31:31 10° SSW
Okean-O 3.3 18:23:46 10° S 18:28:08 59° WSW 18:32:32 10° NNW
FALCON 9 DEB 4.4 18:25:29 10° WNW 18:28:17 28° N 18:29:48 19° NE
CSL-04 Rocket 3.7 18:23:54 10° SSE 18:29:27 83° ENE 18:34:59 10° NNW
SAR-Lupe-1 4.0 18:26:23 10° NNE 18:30:00 89° WNW 18:33:35 10° SSW
Cosmos 1844 Rocket 2.6 18:24:31 10° NNW 18:30:07 72° ENE 18:35:40 10° SE
FALCON 9 DEB 4.4 18:27:23 10° WNW 18:30:13 28° N 18:31:45 19° NE
Cosmos 2084 Rocket 3.8 18:25:59 10° NW 18:30:19 68° SW 18:34:47 10° SSE
CSL-04 Debris 4.2 18:25:22 10° SSE 18:30:48 90° WSW 18:36:19 10° NNW
USA 308 4.1 18:29:11 10° WNW 18:33:05 33° N 18:35:51 17° NE
Cosmos 1666 3.1 18:30:30 10° SSE 18:33:55 36° E 18:37:22 10° NNE
Cosmos 1777 Rocket 4.4 18:30:01 10° N 18:34:59 41° ENE 18:37:59 21° ESE
HJ-1C 4.0 18:32:49 10° S 18:36:05 57° W 18:39:22 10° NNW
Cosmos 1503 Rocket 4.0 18:31:22 10° NNW 18:36:36 83° WSW 18:41:45 10° SSE
Cosmos 2341 Rocket 4.0 18:31:41 10° S 18:37:52 60° E 18:44:02 10° NNE
Meteor 1-5 Rocket 4.2 18:32:59 10° S 18:38:11 56° E 18:43:35 10° NNE
Cosmos 1470 Rocket 3.9 18:37:29 10° SSW 18:41:56 68° W 18:46:23 10° N
Cosmos 1844 3.7 18:36:08 10° NNW 18:41:57 74° ENE 18:46:58 14° SE
Okean 3 4.2 18:38:20 10° N 18:42:11 32° ENE 18:42:56 30° E
CZ-4B R/B 4.4 18:40:45 10° NNW 18:42:47 17° WNW 18:44:49 10° WSW
Cosmos 2360 Rocket 2.1 18:39:01 10° SSW 18:44:38 77° ESE 18:50:20 10° NNE
Ariane Rocket 3.4 18:42:04 22° SE 18:44:54 42° ENE 18:49:41 10° N
Cosmos 2278 Rocket 3.4 18:42:38 10° N 18:47:13 24° NE 18:48:36 22° ENE
Cosmos 1727 Rocket 4.5 18:44:37 10° N 18:50:20 38° ENE 18:52:57 26° ESE
Cosmos 1500 3.6 18:48:57 10° SSW 18:52:39 62° WNW 18:56:22 10° N
Meteor 2-4 Rocket 3.9 18:48:00 10° NNW 18:53:51 79° W 18:59:47 10° S
Cosmos 1703 Rocket 3.5 18:49:39 10° N 18:54:05 89° ENE 18:58:27 10° S
Cosmos 2333 Rocket 2.5 18:49:31 10° S 18:54:49 42° ESE 19:00:10 10° NE
Cosmos 1689 Rocket 4.2 18:53:46 10° N 18:56:18 28° WNW 18:58:50 10° SW
Cosmos 2218 Rocket 4.1 18:50:15 10° SSE 18:56:27 55° E 19:02:41 10° NNE
SL-08 RB Rocket 4.3 18:52:17 10° S 18:56:44 59° W 19:01:16 10° NNW
ERBS 4.3 18:58:12 10° WNW 19:00:53 22° NNW 19:02:19 17° NNE
Cosmos 1933 Rocket 4.0 18:58:33 10° SSW 19:02:52 61° WNW 19:07:13 10° N
Cosmos 1943 Rocket 4.4 19:05:08 10° NNE 19:05:44 10° NNE 19:06:21 10° NE
Resurs 01 Rocket 2.8 19:12:41 28° NE 19:12:41 28° NE 19:15:29 10° N
Cosmos 2242 Rocket 4.3 19:07:41 10° NNW 19:12:06 53° W 19:16:26 10° S
Cosmos 864 Rocket 4.4 19:07:08 10° S 19:13:13 67° E 19:19:23 10° NNE
Cosmos 2322 Rocket 3.4 19:09:35 10° SW 19:14:51 41° NW 19:20:11 10° NNE
Lacrosse 4 Rocket 2.9 19:12:27 10° S 19:14:29 25° S 19:14:29 25° S
Abrixas rocket 4.0 19:14:55 10° W 19:16:07 24° WNW 19:16:07 24° WNW
SME Rocket 4.1 19:09:50 10° NNE 19:18:13 74° ESE 19:23:33 10° S
Cosmos 1959 Rocket 4.3 19:12:33 10° S 19:18:38 76° E 19:24:45 10° NNE
Cosmos 192 4.1 19:17:07 10° SSW 19:22:00 77° ESE 19:26:56 10° NNE
SJ-6B 3.1 19:22:30 37° S 19:23:59 68° W 19:28:01 10° NNW
COSMOS 2428 2.7 19:19:20 10° S 19:24:50 53° ESE 19:24:51 53° ESE
ASTEX 1 3.2 19:22:27 10° N 19:27:22 84° E 19:30:11 26° S
MOS 1 4.2 19:25:33 27° SSE 19:28:46 87° WSW 19:34:29 10° NNW
Meteor 1-23 Rocket 4.1 19:24:08 10° N 19:29:42 65° ENE 19:30:27 58° ESE
Cosmos 2219 Rocket 2.0 19:26:14 10° SSW 19:31:47 71° ESE 19:37:23 10° NNE
Meteor 1-11 Rocket 3.6 19:26:10 10° S 19:31:54 88° E 19:37:33 10° NNE
OBJECT-B 2.4 19:36:25 33° NW 19:36:25 33° NW 19:38:28 10° NNW
Resurs 1-3 3.6 19:38:47 75° NNW 19:38:47 75° NNW 19:42:51 10° NNW
SL-16 R/B 4.3 19:35:19 10° W 19:39:56 25° NW 19:44:34 10° N
SeaSat 1 3.8 19:35:37 10° NNE 19:40:11 39° NW 19:44:44 10° WSW
SJ 16-02 2.3 19:36:36 10° NNW 19:39:34 39° N 19:39:34 39° N
USA 234 3.1 19:39:54 35° NE 19:43:00 89° SE 19:49:34 10° SW
Cosmos 1066 Rocket 4.3 19:37:51 10° NNW 19:43:35 79° W 19:45:41 41° S
CZ-2C R/B 4.4 19:43:17 10° N 19:48:06 32° WNW 19:52:48 10° SW
Meteor 2-20 Rocket 4.3 19:43:09 10° N 19:49:08 66° ENE 19:49:08 66° ENE
Cosmos 2369 Rocket 4.4 19:49:05 10° N 19:50:42 12° NNE 19:50:42 12° NNE
BREEZE-M DEB (TANK) 3.0 19:48:49 10° WNW 19:51:09 61° NW 19:51:09 61° NW
USA 305 4.2 19:47:46 10° WNW 19:50:56 35° NNW 19:50:56 35° NNW
Cosmos 2322 3.9 19:46:09 10° SW 19:51:52 69° WNW 19:57:36 10° NNE
SL-4 R/B 3.9 19:52:41 10° WNW 19:54:13 24° WNW 19:54:13 24° WNW
Gbstr 26 Del rocket 3.9 19:56:29 10° WNW 20:00:59 59° N 20:00:59 59° N
USA 307 4.5 19:59:06 10° WNW 20:01:49 31° NNW 20:01:49 31° NNW
ATLAS CENTAUR R/B 3.4 20:00:25 10° W 20:03:11 22° NW 20:03:11 22° NW
SPOT 3 Rocket 4.1 20:18:37 55° WNW 20:18:37 55° WNW 20:22:59 10° NNW
NOSS 3-3 (A) 4.4 20:10:37 10° NW 20:18:07 85° NE 20:18:42 78° ESE
NOSS 3-3 (C) 4.4 20:10:43 10° NW 20:18:12 84° NE 20:18:47 78° ESE
Cosmos 2360 Rocket 4.4 20:24:51 10° W 20:29:17 23° NW 20:33:45 10° N
Cosmos 2278 Rocket 2.9 20:26:13 10° NNW 20:30:28 50° NW 20:30:28 50° NW
Cosmos 2333 Rocket 3.5 20:33:55 10° WSW 20:39:09 37° NW 20:44:29 10° NNE
Resurs 01 Rocket 4.1 20:50:14 19° NW 20:50:14 19° NW 20:51:56 10° NW
Cosmos 1943 Rocket 4.1 20:46:05 10° NNW 20:48:24 22° N 20:48:24 22° N
Cosmos 2219 Rocket 4.2 21:11:48 10° W 21:16:18 24° NW 21:20:50 10° N
USA 234 4.3 21:27:15 39° NW 21:27:15 39° NW 21:31:52 10° W
